User: anonymous   Login
Location: Unspecified
(0.0000°N, 0.0000°E)
Time: 13:19:47
(UTC+00:00)
Language:

GOES 8 - Orbit

View from above orbital plane
View from above orbital plane
View from above satellite
View from above satellite

Ground track
Ground track

The orbit data is extracted from the following two-line orbital elements,

1 23051U 94022A   18292.76441608 -.00000094 +00000-0 +00000-0 0  9990
2 23051 011.9490 034.4787 0007505 255.9779 115.1617 00.98903678096468
Epoch (UTC): 19 October 2018 18:20:45
Eccentricity: 0.0007505
inclination: 11.9490°
perigee height: 36142 km
apogee height: 36206 km
right ascension of ascending node: 34.4787°
argument of perigee: 255.9779°
revolutions per day: 0.98903678
mean anomaly at epoch: 115.1617°
orbit number at epoch: 9646

The dashed part of the orbit path shows where the satellite is in the earth's shadow,  

DLR